Lid_Strength_Index
12 12 12 12 12 12 12 13 14 16 16 14 14 13 12 11 9 11 11 8 7 8 9 9 9 9 9 9 9 8 8 7 7 7 7 6 6 6
12 12 12 12 12 13 13 13 13 14 16 15 14 13 11 10 9 11 11 9 8 8 8 8 9 9 9 8 8 8 8 7 7 6 6 6 6 6
13 13 12 12 12 13 12 13 14 14 16 15 13 12 13 12 12 12 11 12 12 9 9 8 8 8 8 9 9 8 8 7 7 6 6 6 6 6
13 13 13 12 13 13 14 14 14 14 15 16 15 14 13 13 13 13 12 12 13 11 10 10 10 9 9 9 9 9 8 8 8 7 7 7 7 7
13 13 13 14 15 15 15 15 15 14 15 15 16 14 14 14 15 14 14 15 13 11 11 10 10 10 10 9 9 9 9 9 8 8 8 9 9 8
14 14 15 15 16 16 17 16 16 16 16 16 15 16 16 15 15 16 17 15 15 13 12 12 11 10 10 9 9 9 9 8 9 9 10 9 9 9
15 16 15 15 15 15 17 17 17 17 17 16 16 16 16 17 18 17 17 17 16 15 15 15 13 13 12 11 10 9 9 10 10 10 9 9 9 9
16 16 15 14 14 14 15 16 16 17 17 17 18 18 18 18 17 18 18 18 19 15 16 15 14 14 13 12 10 11 11 11 10 10 10 11 10 10
15 15 14 14 15 15 16 15 14 15 15 16 17 18 18 18 17 17 17 17 18 16 15 17 16 16 14 14 13 12 11 11 10 11 11 11 11 11
14 14 16 16 16 16 16 16 16 15 15 16 17 17 17 16 16 16 16 16 16 15 15 19 18 19 16 16 13 12 10 10 11 11 11 11 11 11
15 16 16 17 16 16 17 17 17 18 16 15 15 14 13 13 13 15 17 17 19 17 16 17 19 19 18 20 16 12 12 11 11 11 10 10 10 10
16 16 16 17 17 17 18 18 17 19 18 17 16 15 14 14 13 15 15 18 18 21 16 18 19 19 22 21 18 15 15 12 11 10 10 10 10 11
16 17 16 16 17 17 17 18 19 18 18 17 16 16 16 16 15 14 14 16 18 18 16 17 20 19 20 19 18 16 15 14 14 13 11 11 10 10
16 18 19 16 17 17 17 17 17 17 18 18 19 20 19 18 16 15 14 14 14 15 15 16 18 18 18 19 19 17 15 14 14 14 14 12 11 11
18 18 16 17 17 17 16 16 19 20 21 21 21 20 18 17 15 17 16 15 15 15 15 15 15 16 17 18 19 18 17 16 14 14 14 14 14 14
18 19 21 20 23 24 22 20 21 23 22 23 21 19 19 18 17 17 18 17 18 18 15 14 14 15 17 17 17 18 17 18 15 15 15 16 15 15
20 24 24 24 25 26 24 24 25 25 24 24 23 23 21 17 19 18 18 19 19 19 18 17 15 15 15 16 18 17 17 17 16 16 17 17 16 15
24 26 26 24 24 26 26 26 27 26 25 25 26 26 21 23 22 20 19 21 20 19 19 19 18 18 18 17 14 17 17 18 17 17 16 18 18 16
24 25 24 24 25 25 26 26 25 25 26 26 26 26 26 26 25 25 25 21 20 20 20 19 18 19 21 23 20 14 18 18 18 19 18 18 19 18
20 22 23 24 24 24 25 25 25 26 26 26 27 27 25 25 26 26 24 23 22 21 21 19 19 19 21 22 22 19 14 19 19 20 20 18 17 15
20 20 21 22 22 22 25 25 26 26 27 26 24 26 28 28 28 26 27 26 23 21 22 22 20 18 18 18 22 22 20 15 16 19 19 20 20 19
20 17 18 20 22 22 25 26 27 27 27 27 28 29 30 27 27 29 29 23 22 22 22 21 20 20 20 21 23 23 23 21 17 15 14 14 18 21
19 19 21 20 22 23 22 24 24 27 26 26 27 27 29 29 28 28 25 23 23 23 23 23 22 20 22 22 23 24 23 22 21 21 18 12 12 13